Regional Weather Roundup
Issued by NWS

Home | Current Version | Previous Version | Text Only | Print | Product List | Glossary On
Versions: 1 2 3 4 5 6 7 8 9 10 11 12 13 14 15 16 17 18 19 20 21 22 23 24 25 26 27 28 29 30 31 32 33 34 35 36 37 38 39 40 41 42 43 44 45 46 47 48 49 50
000
ASUS45 KREV 260710
RWRNV
NEVADA REGIONAL WEATHER ROUNDUP
NATIONAL WEATHER SERVICE RENO NV
1200 AM PDT SAT JUL 26 2014

NOTE: "FAIR" INDICATES FEW OR NO CLOUDS BELOW 12,000 FEET WITH NO
SIGNIFICANT WEATHER AND/OR OBSTRUCTIONS TO VISIBILITY.

NVZ001-003-004-260800-
WESTERN NEVADA

CITY           SKY/WX    TMP DP  RH WIND       PRES   REMARKS
RENO           PTCLDY    76  35  22 NW9       30.11R
CARSON CITY    FAIR      68  37  32 CALM      30.13S
SLIDE MTN        N/A     54  32  43 SW9         N/A
PYRAMID LAKE     N/A     81 N/A N/A SE2         N/A
FALLON         CLEAR     76  34  21 W9        30.04R
LOVELOCK       CLEAR     67  27  22 CALM      30.03R
HAWTHORNE      CLEAR     79  39  24 CALM      30.07R
$$

NVZ002-CAZ072-073-260800-
NORTHERN AND CENTRAL SIERRA

CITY           SKY/WX    TMP DP  RH WIND       PRES   REMARKS
S. LAKE TAHOE  CLEAR     54  37  52 CALM      30.24S
TRUCKEE        CLEAR     50  36  57 CALM      30.23S
SQUAW VLY 8000 NOT AVBL
BLUE CANYON    CLEAR     68  32  26 CALM      30.19S
MAMMOTH LAKES  FAIR      55  28  35 CALM      30.30S
BRIDGEPORT     FAIR      55  21  26 CALM      30.26R
$$

NVZ030-031-036-260800-
NORTHERN NEVADA

CITY           SKY/WX    TMP DP  RH WIND       PRES   REMARKS
ELKO           CLEAR     70  24  17 N10       30.12R
WINNEMUCCA     CLEAR     60  27  28 MISG      30.06R
WENDOVER       CLEAR     77  30  18 W5        30.05S
$$

NVZ035-037-260800-
CENTRAL NEVADA

CITY           SKY/WX    TMP DP  RH WIND       PRES   REMARKS
ELY            MOCLDY    68  36  30 S7        30.18S
EUREKA           N/A     56  22  26 S7        30.17R
$$

NVZ013-014-260800-
SOUTH CENTRAL NEVADA

CITY           SKY/WX    TMP DP  RH WIND       PRES   REMARKS
TONOPAH        PTCLDY    73  21  14 W7        30.15R
$$

NVZ017-020-022-260800-
SOUTHERN NEVADA

CITY           SKY/WX    TMP DP  RH WIND       PRES   REMARKS
LAS VEGAS      MOCLDY    95  49  20 S13       29.86R
N. LAS VEGAS   MOCLDY    94  51  23 S6        29.89R
NELLIS AFB     MOCLDY    94  59  30 SE17      29.87R
HENDERSON      MOCLDY    94  53  24 S10       29.93R
MERCURY        MOCLDY    91  39  16 SW20G25   29.96R
$$


USA.gov is the U.S. government's official web portal to all federal, state and local government web resources and services.